Check out our new BloomSky Weather System.

Active alerts

Galveston, TX
  Details for Galveston, TX Coastal Flood Advisory  +3 additional alerts
Houston, TX
  Details for Houston, TX Flash Flood Watch
Fort Bend, TX
  Details for Fort Bend, TX Flash Flood Watch


Thunder radar  blitzortung!


Rain radar more information rain snow radar


Visit our other weather sites:

Template documentation
and downloads

And another site



Weather Underground History page Text

Daily Summary for May 5, 2017 Units:  English    Metric   Both
« Previous Day
Next Day »
Daily Weekly Monthly Yearly Custom
  High: Low: Average:
Temperature: TemperatureF °F 53.2 °F 67.3 °F
Dew Point: DewpointF °F 44.4 °F 48.2 °F
Humidity: Humidity % 30 % 54 %
Wind Speed: WindSpeedMPH mph 0.0 mph 2.5 mph
Wind Gust: WindSpeedGustMPH mph - -
Wind:- - WNW
Pressure: PressureIn in 29.91 in -
Precipitation: 0.00 in    
Historical Graphs
 
 
Tabular Data for May 5, 2017
Time Temperature Dew Point Pressure Wind Wind Speed Wind Gust Humidity Rainfall Rate (Hourly)
TemperatureF °F DewpointF °F PressureIn in Calm     Humidity % HourlyPrecipIn in
00:02 58.8 °F 51.3 °F 30.02 in Calm     76 % 0.00 in
00:07 58.8 °F 51.3 °F 30.02 in Calm     76 % 0.00 in
00:12 58.6 °F 51.4 °F 30.02 in Calm     77 % 0.00 in
00:17 58.5 °F 51.3 °F 30.02 in Calm     77 % 0.00 in
00:22 58.3 °F 51.1 °F 30.02 in Calm     77 % 0.00 in
00:27 58.3 °F 51.1 °F 30.02 in Calm     77 % 0.00 in
00:32 58.1 °F 51.3 °F 30.02 in Calm   1.0 mph 78 % 0.00 in
00:37 57.9 °F 51.1 °F 30.02 in Calm   1.0 mph 78 % 0.00 in
00:42 57.7 °F 50.5 °F 30.02 in Calm   1.0 mph 77 % 0.00 in
00:47 57.6 °F 50.7 °F 30.02 in Calm     78 % 0.00 in
00:52 57.6 °F 51.1 °F 30.02 in Calm     79 % 0.00 in
00:57 57.4 °F 50.9 °F 30.02 in Calm     79 % 0.00 in
01:02 57.4 °F 51.3 °F 30.02 in Calm   1.0 mph 80 % 0.00 in
01:07 57.4 °F 50.9 °F 30.02 in Calm   1.0 mph 79 % 0.00 in
01:12 57.4 °F 50.9 °F 30.02 in Calm   1.0 mph 79 % 0.00 in
01:17 57.0 °F 50.5 °F 30.02 in Calm   1.0 mph 79 % 0.00 in
01:22 56.8 °F 50.4 °F 30.01 in Calm   1.0 mph 79 % 0.00 in
01:27 56.7 °F 50.2 °F 30.01 in Calm     79 % 0.00 in
01:28 56.7 °F 50.2 °F 30.01 in Calm     79 % 0.00 in
02:56 54.9 °F 49.5 °F 29.99 in Calm   1.0 mph 82 % 0.00 in
03:01 54.7 °F 48.9 °F 29.99 in Calm   1.0 mph 81 % 0.00 in
03:06 54.5 °F 49.1 °F 29.99 in Calm   1.0 mph 82 % 0.00 in
03:11 54.3 °F 48.9 °F 29.99 in Calm     82 % 0.00 in
03:16 54.3 °F 48.9 °F 29.99 in Calm     82 % 0.00 in
03:21 54.3 °F 49.3 °F 29.99 in Calm     83 % 0.00 in
03:26 54.5 °F 49.5 °F 29.99 in Calm   1.0 mph 83 % 0.00 in
03:31 54.7 °F 49.6 °F 29.99 in Calm   1.0 mph 83 % 0.00 in
03:36 54.7 °F 49.3 °F 29.99 in Calm   1.0 mph 82 % 0.00 in
03:41 54.9 °F 49.5 °F 29.99 in Calm   1.0 mph 82 % 0.00 in
03:46 54.7 °F 49.3 °F 29.99 in Calm   1.0 mph 82 % 0.00 in
03:51 54.7 °F 49.3 °F 29.99 in Calm   1.0 mph 82 % 0.00 in
03:56 54.3 °F 48.9 °F 29.99 in Calm   1.0 mph 82 % 0.00 in
04:01 54.1 °F 48.7 °F 29.99 in Calm   1.0 mph 82 % 0.00 in
04:06 54.0 °F 48.6 °F 29.99 in Calm     82 % 0.00 in
04:11 53.8 °F 48.7 °F 29.98 in Calm   1.0 mph 83 % 0.00 in
04:16 53.6 °F 48.9 °F 29.99 in Calm   1.0 mph 84 % 0.00 in
04:21 53.8 °F 49.1 °F 29.99 in Calm   1.0 mph 84 % 0.00 in
04:26 53.6 °F 48.9 °F 29.99 in Calm   1.0 mph 84 % 0.00 in
04:31 53.6 °F 48.9 °F 29.99 in Calm   1.0 mph 84 % 0.00 in
04:36 53.6 °F 48.9 °F 29.99 in Calm   1.0 mph 84 % 0.00 in
04:41 53.4 °F 48.7 °F 29.99 in Calm   1.0 mph 84 % 0.00 in
04:46 53.4 °F 48.7 °F 29.99 in Calm   1.0 mph 84 % 0.00 in
04:51 53.4 °F 49.1 °F 29.99 in Calm   1.0 mph 85 % 0.00 in
04:53 53.4 °F 49.1 °F 29.99 in Calm   1.0 mph 85 % 0.00 in
04:58 53.4 °F 48.7 °F 29.99 in Calm   1.0 mph 84 % 0.00 in
05:03 53.4 °F 48.7 °F 29.99 in Calm   1.0 mph 84 % 0.00 in
05:08 53.2 °F 48.9 °F 29.99 in Calm   1.0 mph 85 % 0.00 in
05:13 53.2 °F 48.9 °F 29.99 in Calm   1.0 mph 85 % 0.00 in
05:18 53.2 °F 48.9 °F 29.99 in Calm   1.0 mph 85 % 0.00 in
05:23 53.6 °F 48.9 °F 29.99 in Calm   2.0 mph 84 % 0.00 in
05:28 54.1 °F 49.1 °F 29.99 in Calm   2.0 mph 83 % 0.00 in
05:33 54.5 °F 49.1 °F 29.99 in North 1.0 mph 3.0 mph 82 % 0.00 in
05:38 54.7 °F 48.9 °F 29.99 in Calm   3.0 mph 81 % 0.00 in
05:43 54.9 °F 48.7 °F 29.99 in NNW 1.0 mph 3.0 mph 80 % 0.00 in
05:48 54.9 °F 48.7 °F 29.99 in WNW 1.0 mph 3.0 mph 80 % 0.00 in
05:54 54.9 °F 48.7 °F 29.99 in NNW 1.0 mph 3.0 mph 80 % 0.00 in
05:59 54.9 °F 48.6 °F 29.99 in Calm   3.0 mph 79 % 0.00 in
06:04 54.9 °F 48.6 °F 29.99 in Calm   3.0 mph 79 % 0.00 in
06:09 54.9 °F 48.6 °F 29.99 in Calm   3.0 mph 79 % 0.00 in
06:14 54.7 °F 48.4 °F 29.99 in Calm   2.0 mph 79 % 0.00 in
06:19 54.7 °F 48.4 °F 29.99 in Calm   2.0 mph 79 % 0.00 in
06:24 54.5 °F 48.2 °F 29.99 in Calm   2.0 mph 79 % 0.00 in
06:29 54.3 °F 48.0 °F 30.00 in Calm   2.0 mph 79 % 0.00 in
06:34 54.3 °F 48.2 °F 30.00 in Calm   2.0 mph 80 % 0.00 in
06:39 54.3 °F 48.2 °F 30.00 in Calm   2.0 mph 80 % 0.00 in
06:44 54.3 °F 48.0 °F 30.00 in Calm   2.0 mph 79 % 0.00 in
06:49 54.5 °F 48.2 °F 30.01 in Calm   2.0 mph 79 % 0.00 in
06:54 54.3 °F 48.0 °F 30.01 in Calm   2.0 mph 79 % 0.00 in
06:59 54.5 °F 48.2 °F 30.01 in SW 2.0 mph 2.0 mph 79 % 0.00 in
07:04 54.7 °F 48.4 °F 30.01 in WNW 3.0 mph 3.0 mph 79 % 0.00 in
07:09 54.9 °F 48.2 °F 30.01 in Calm   4.0 mph 78 % 0.00 in
07:14 55.0 °F 48.4 °F 30.01 in NW 1.0 mph 4.0 mph 78 % 0.00 in
07:19 55.6 °F 48.6 °F 30.02 in Calm   4.0 mph 77 % 0.00 in
07:24 56.1 °F 48.9 °F 30.02 in West 2.0 mph 4.0 mph 77 % 0.00 in
07:29 56.7 °F 48.7 °F 30.02 in Calm   5.0 mph 75 % 0.00 in
07:34 57.4 °F 49.1 °F 30.02 in WNW 2.0 mph 5.0 mph 74 % 0.00 in
07:39 57.7 °F 49.5 °F 30.02 in Calm   5.0 mph 74 % 0.00 in
07:44 58.3 °F 49.6 °F 30.02 in Calm   3.0 mph 73 % 0.00 in
07:49 58.8 °F 49.8 °F 30.03 in Calm   3.0 mph 72 % 0.00 in
07:54 59.2 °F 49.8 °F 30.03 in West 1.0 mph 3.0 mph 71 % 0.00 in
07:59 59.5 °F 49.8 °F 30.03 in WNW 3.0 mph 3.0 mph 70 % 0.00 in
08:04 59.9 °F 49.6 °F 30.03 in NW 2.0 mph 4.0 mph 69 % 0.00 in
08:09 60.4 °F 50.2 °F 30.03 in NW 4.0 mph 5.0 mph 69 % 0.00 in
08:14 60.8 °F 49.8 °F 30.03 in NW 1.0 mph 5.0 mph 67 % 0.00 in
08:19 61.3 °F 50.4 °F 30.03 in WSW 2.0 mph 5.0 mph 67 % 0.00 in
08:24 61.9 °F 50.4 °F 30.03 in NW 5.0 mph 5.0 mph 66 % 0.00 in
08:29 62.1 °F 50.2 °F 30.03 in NNW 3.0 mph 5.0 mph 65 % 0.00 in
08:34 62.4 °F 49.6 °F 30.03 in WNW 5.0 mph 5.0 mph 63 % 0.00 in
08:39 62.8 °F 50.4 °F 30.03 in West 2.0 mph 9.0 mph 64 % 0.00 in
08:40 62.8 °F 50.0 °F 30.04 in NNW 1.0 mph 9.0 mph 63 % 0.00 in
08:45 63.3 °F 50.5 °F 30.04 in WNW 1.0 mph 9.0 mph 63 % 0.00 in
08:50 63.7 °F 50.0 °F 30.03 in NW 4.0 mph 7.0 mph 61 % 0.00 in
08:55 63.9 °F 50.5 °F 30.04 in NW 5.0 mph 8.0 mph 62 % 0.00 in
09:00 64.2 °F 50.0 °F 30.04 in NNW 3.0 mph 8.0 mph 60 % 0.00 in
09:05 64.8 °F 50.2 °F 30.04 in NW 2.0 mph 8.0 mph 59 % 0.00 in
09:10 65.1 °F 50.0 °F 30.04 in NW 5.0 mph 7.0 mph 58 % 0.00 in
09:15 65.5 °F 49.8 °F 30.04 in NW 3.0 mph 9.0 mph 57 % 0.00 in
09:20 65.8 °F 50.2 °F 30.04 in West 1.0 mph 9.0 mph 57 % 0.00 in
09:25 66.4 °F 50.7 °F 30.04 in NNW 2.0 mph 9.0 mph 57 % 0.00 in
09:30 66.9 °F 50.2 °F 30.04 in NW 3.0 mph 8.0 mph 55 % 0.00 in
09:33 67.3 °F 51.1 °F 30.04 in NW 2.0 mph 8.0 mph 56 % 0.00 in
09:38 68.2 °F 51.8 °F 30.04 in North 4.0 mph 8.0 mph 56 % 0.00 in
09:43 68.7 °F 50.9 °F 30.04 in NW 1.0 mph 8.0 mph 53 % 0.00 in
09:48 68.7 °F 51.4 °F 30.04 in WSW 3.0 mph 8.0 mph 54 % 0.00 in
09:53 69.3 °F 50.4 °F 30.04 in NNW 2.0 mph 8.0 mph 51 % 0.00 in
09:58 69.4 °F 50.5 °F 30.04 in NW 3.0 mph 8.0 mph 51 % 0.00 in
10:03 69.6 °F 50.7 °F 30.04 in WNW 3.0 mph 7.0 mph 51 % 0.00 in
10:08 70.0 °F 50.0 °F 30.04 in NNW 4.0 mph 7.0 mph 49 % 0.00 in
10:13 70.5 °F 49.3 °F 30.04 in Calm   6.0 mph 47 % 0.00 in
10:18 70.9 °F 48.6 °F 30.04 in WNW 7.0 mph 8.0 mph 45 % 0.00 in
10:23 70.9 °F 49.6 °F 30.04 in NW 3.0 mph 8.0 mph 47 % 0.00 in
10:28 71.4 °F 50.7 °F 30.04 in NW 1.0 mph 8.0 mph 48 % 0.00 in
10:33 72.3 °F 49.1 °F 30.04 in NW 4.0 mph 7.0 mph 44 % 0.00 in
10:38 72.7 °F 49.5 °F 30.04 in NW 3.0 mph 7.0 mph 44 % 0.00 in
10:43 73.0 °F 47.3 °F 30.04 in NW 6.0 mph 7.0 mph 40 % 0.00 in
10:48 73.2 °F 48.7 °F 30.04 in NW 4.0 mph 7.0 mph 42 % 0.00 in
10:53 73.6 °F 47.1 °F 30.04 in North 2.0 mph 9.0 mph 39 % 0.00 in
10:58 73.8 °F 45.1 °F 30.04 in West 4.0 mph 9.0 mph 36 % 0.00 in
11:03 73.6 °F 47.8 °F 30.04 in North 7.0 mph 9.0 mph 40 % 0.00 in
11:08 73.8 °F 45.1 °F 30.04 in NNW 8.0 mph 11.0 mph 36 % 0.00 in
11:13 73.6 °F 45.7 °F 30.04 in NNW 4.0 mph 11.0 mph 37 % 0.00 in
11:18 73.9 °F 46.8 °F 30.04 in North 8.0 mph 11.0 mph 38 % 0.00 in
11:23 73.9 °F 45.3 °F 30.04 in WNW 3.0 mph 12.0 mph 36 % 0.00 in
11:28 74.1 °F 46.2 °F 30.04 in NNW 4.0 mph 12.0 mph 37 % 0.00 in
11:33 74.7 °F 47.3 °F 30.04 in WNW 3.0 mph 12.0 mph 38 % 0.00 in
11:38 74.8 °F 48.2 °F 30.04 in NW 9.0 mph 11.0 mph 39 % 0.00 in
11:43 74.8 °F 48.2 °F 30.04 in WNW 4.0 mph 12.0 mph 39 % 0.00 in
11:48 74.7 °F 45.9 °F 30.04 in NNW 6.0 mph 12.0 mph 36 % 0.00 in
11:53 74.7 °F 47.3 °F 30.04 in NW 7.0 mph 14.0 mph 38 % 0.00 in
11:58 74.7 °F 46.6 °F 30.04 in NNW 7.0 mph 14.0 mph 37 % 0.00 in
12:03 75.2 °F 46.4 °F 30.03 in WNW 3.0 mph 14.0 mph 36 % 0.00 in
12:08 75.6 °F 44.4 °F 30.04 in WNW 5.0 mph 12.0 mph 33 % 0.00 in
12:13 75.0 °F 45.5 °F 30.03 in WNW 2.0 mph 13.0 mph 35 % 0.00 in
12:18 75.6 °F 46.8 °F 30.03 in NNW 6.0 mph 13.0 mph 36 % 0.00 in
12:23 75.6 °F 46.8 °F 30.03 in NNW 7.0 mph 13.0 mph 36 % 0.00 in
12:28 75.6 °F 46.0 °F 30.03 in NW 7.0 mph 13.0 mph 35 % 0.00 in
12:33 75.6 °F 46.8 °F 30.03 in West 7.0 mph 13.0 mph 36 % 0.00 in
12:38 75.7 °F 46.9 °F 30.03 in NW 2.0 mph 13.0 mph 36 % 0.00 in
12:44 75.7 °F 47.7 °F 30.02 in WSW 3.0 mph 11.0 mph 37 % 0.00 in
12:49 76.3 °F 48.0 °F 30.02 in NW 4.0 mph 11.0 mph 37 % 0.00 in
12:54 76.5 °F 48.2 °F 30.02 in NW 4.0 mph 11.0 mph 37 % 0.00 in
12:59 76.3 °F 46.6 °F 30.02 in NNW 8.0 mph 10.0 mph 35 % 0.00 in
13:04 76.3 °F 45.9 °F 30.01 in NW 2.0 mph 14.0 mph 34 % 0.00 in
13:09 76.6 °F 47.7 °F 30.01 in NW 2.0 mph 14.0 mph 36 % 0.00 in
13:11 77.2 °F 48.2 °F 30.01 in WNW 3.0 mph 14.0 mph 36 % 0.00 in
13:16 77.4 °F 46.0 °F 30.01 in North 7.0 mph 11.0 mph 33 % 0.00 in
13:21 77.4 °F 46.8 °F 30.01 in NNW 9.0 mph 12.0 mph 34 % 0.00 in
13:26 77.2 °F 48.2 °F 30.01 in NNW 5.0 mph 15.0 mph 36 % 0.00 in
13:31 77.4 °F 45.1 °F 30.01 in NW 6.0 mph 15.0 mph 32 % 0.00 in
13:36 77.0 °F 46.4 °F 30.00 in NW 7.0 mph 15.0 mph 34 % 0.00 in
13:41 77.0 °F 45.0 °F 30.00 in NW 10.0 mph 14.0 mph 32 % 0.00 in
13:46 77.2 °F 46.6 °F 30.00 in NW 3.0 mph 14.0 mph 34 % 0.00 in
13:51 77.2 °F 45.9 °F 30.00 in WSW 3.0 mph 13.0 mph 33 % 0.00 in
13:56 77.4 °F 46.8 °F 29.99 in NW 7.0 mph 14.0 mph 34 % 0.00 in
14:01 78.1 °F 45.0 °F 29.99 in NW 10.0 mph 14.0 mph 31 % 0.00 in
14:06 77.4 °F 47.5 °F 29.99 in West 2.0 mph 14.0 mph 35 % 0.00 in
14:11 77.7 °F 47.1 °F 29.99 in WSW 4.0 mph 13.0 mph 34 % 0.00 in
14:16 78.1 °F 45.0 °F 29.99 in NNE 3.0 mph 13.0 mph 31 % 0.00 in
14:21 77.9 °F 45.7 °F 29.99 in NW 7.0 mph 15.0 mph 32 % 0.00 in
14:26 77.5 °F 46.2 °F 29.99 in West 4.0 mph 15.0 mph 33 % 0.00 in
14:31 77.5 °F 45.3 °F 29.98 in West 2.0 mph 15.0 mph 32 % 0.00 in
14:36 78.3 °F 45.1 °F 29.98 in WNW 8.0 mph 15.0 mph 31 % 0.00 in
14:41 78.6 °F 45.5 °F 29.98 in NNW 5.0 mph 11.0 mph 31 % 0.00 in
14:42 78.6 °F 46.2 °F 29.98 in NW 7.0 mph 11.0 mph 32 % 0.00 in
14:48 78.3 °F 45.1 °F 29.98 in NNW 11.0 mph 12.0 mph 31 % 0.00 in
14:53 78.6 °F 46.2 °F 29.97 in NW 7.0 mph 12.0 mph 32 % 0.00 in
14:58 78.4 °F 46.9 °F 29.97 in WNW 2.0 mph 12.0 mph 33 % 0.00 in
15:03 78.4 °F 45.3 °F 29.97 in NW 4.0 mph 16.0 mph 31 % 0.00 in
15:08 78.3 °F 47.7 °F 29.97 in WSW 5.0 mph 16.0 mph 34 % 0.00 in
15:13 79.3 °F 48.6 °F 29.96 in NW 3.0 mph 16.0 mph 34 % 0.00 in
15:18 79.3 °F 46.0 °F 29.96 in NW 6.0 mph 12.0 mph 31 % 0.00 in
15:23 79.3 °F 46.9 °F 29.96 in NW 5.0 mph 13.0 mph 32 % 0.00 in
15:28 78.6 °F 47.1 °F 29.96 in NNW 4.0 mph 14.0 mph 33 % 0.00 in
15:33 78.8 °F 46.4 °F 29.95 in NNW 12.0 mph 14.0 mph 32 % 0.00 in
15:38 79.2 °F 46.8 °F 29.95 in SW 1.0 mph 14.0 mph 32 % 0.00 in
15:43 79.5 °F 47.1 °F 29.95 in NW 9.0 mph 12.0 mph 32 % 0.00 in
15:48 79.3 °F 48.6 °F 29.95 in North 5.0 mph 12.0 mph 34 % 0.00 in
15:53 79.2 °F 45.9 °F 29.95 in NW 7.0 mph 14.0 mph 31 % 0.00 in
15:58 79.2 °F 45.9 °F 29.94 in NNW 5.0 mph 14.0 mph 31 % 0.00 in
16:03 79.5 °F 46.2 °F 29.94 in WNW 6.0 mph 14.0 mph 31 % 0.00 in
16:08 79.5 °F 46.2 °F 29.94 in NW 9.0 mph 12.0 mph 31 % 0.00 in
16:13 79.3 °F 46.9 °F 29.94 in WSW 4.0 mph 12.0 mph 32 % 0.00 in
16:18 79.0 °F 46.6 °F 29.94 in WNW 3.0 mph 12.0 mph 32 % 0.00 in
16:23 79.3 °F 46.9 °F 29.93 in West 3.0 mph 17.0 mph 32 % 0.00 in
16:28 79.9 °F 47.3 °F 29.92 in SW 4.0 mph 17.0 mph 32 % 0.00 in
16:33 80.2 °F 48.6 °F 29.93 in NW 4.0 mph 17.0 mph 33 % 0.00 in
16:38 80.1 °F 46.8 °F 29.93 in West 6.0 mph 12.0 mph 31 % 0.00 in
16:43 79.5 °F 46.2 °F 29.92 in North 3.0 mph 13.0 mph 31 % 0.00 in
16:48 79.3 °F 46.0 °F 29.92 in North 6.0 mph 13.0 mph 31 % 0.00 in
16:53 79.2 °F 46.8 °F 29.92 in NW 6.0 mph 13.0 mph 32 % 0.00 in
16:58 79.0 °F 46.6 °F 29.92 in WNW 10.0 mph 15.0 mph 32 % 0.00 in
17:03 79.2 °F 47.7 °F 29.92 in North 5.0 mph 15.0 mph 33 % 0.00 in
17:08 79.3 °F 46.9 °F 29.91 in NNW 7.0 mph 15.0 mph 32 % 0.00 in
17:13 79.5 °F 46.2 °F 29.92 in WNW 9.0 mph 12.0 mph 31 % 0.00 in
17:18 79.3 °F 46.9 °F 29.92 in South 2.0 mph 12.0 mph 32 % 0.00 in
17:23 79.3 °F 46.0 °F 29.91 in NW 3.0 mph 15.0 mph 31 % 0.00 in
17:28 79.9 °F 47.3 °F 29.91 in North 7.0 mph 15.0 mph 32 % 0.00 in
17:33 79.3 °F 46.9 °F 29.92 in NW 3.0 mph 15.0 mph 32 % 0.00 in
17:38 79.5 °F 47.1 °F 29.92 in WNW 2.0 mph 12.0 mph 32 % 0.00 in
17:43 79.5 °F 45.3 °F 29.92 in NW 8.0 mph 12.0 mph 30 % 0.00 in
17:48 79.3 °F 45.1 °F 29.92 in WNW 8.0 mph 11.0 mph 30 % 0.00 in
17:53 79.3 °F 46.0 °F 29.92 in NW 7.0 mph 14.0 mph 31 % 0.00 in
17:58 79.3 °F 46.9 °F 29.92 in NW 6.0 mph 14.0 mph 32 % 0.00 in
18:03 79.2 °F 46.8 °F 29.92 in NW 8.0 mph 14.0 mph 32 % 0.00 in
18:08 79.0 °F 45.7 °F 29.92 in WNW 4.0 mph 10.0 mph 31 % 0.00 in
18:13 78.8 °F 45.7 °F 29.92 in NW 7.0 mph 11.0 mph 31 % 0.00 in
18:18 79.0 °F 45.7 °F 29.92 in NNW 5.0 mph 12.0 mph 31 % 0.00 in
18:19 79.0 °F 45.7 °F 29.92 in NW 9.0 mph 12.0 mph 31 % 0.00 in
18:24 79.0 °F 45.7 °F 29.92 in NNW 6.0 mph 12.0 mph 31 % 0.00 in
18:29 78.6 °F 45.5 °F 29.92 in NW 2.0 mph 12.0 mph 31 % 0.00 in
18:34 78.8 °F 46.4 °F 29.91 in NW 3.0 mph 12.0 mph 32 % 0.00 in
18:39 78.6 °F 47.1 °F 29.91 in NW 3.0 mph 11.0 mph 33 % 0.00 in
18:44 78.8 °F 47.3 °F 29.91 in NW 3.0 mph 9.0 mph 33 % 0.00 in
18:49 78.6 °F 47.1 °F 29.92 in NW 4.0 mph 9.0 mph 33 % 0.00 in
18:54 78.3 °F 46.0 °F 29.91 in WNW 1.0 mph 9.0 mph 32 % 0.00 in
18:59 78.4 °F 46.9 °F 29.91 in SW 5.0 mph 8.0 mph 33 % 0.00 in
19:04 78.3 °F 46.8 °F 29.92 in North 5.0 mph 8.0 mph 33 % 0.00 in
19:09 77.9 °F 46.4 °F 29.92 in WNW 4.0 mph 8.0 mph 33 % 0.00 in
19:14 77.4 °F 46.0 °F 29.91 in NW 3.0 mph 7.0 mph 33 % 0.00 in
19:19 76.8 °F 45.5 °F 29.92 in WNW 4.0 mph 8.0 mph 33 % 0.00 in
19:24 76.6 °F 46.2 °F 29.92 in NW 6.0 mph 8.0 mph 34 % 0.00 in
19:29 76.5 °F 46.8 °F 29.92 in NNW 3.0 mph 8.0 mph 35 % 0.00 in
19:31 76.3 °F 47.3 °F 29.92 in NW 1.0 mph 8.0 mph 36 % 0.00 in
19:36 75.7 °F 47.7 °F 29.92 in North 2.0 mph 8.0 mph 37 % 0.00 in
19:41 75.4 °F 47.3 °F 29.92 in NNW 1.0 mph 7.0 mph 37 % 0.00 in
19:46 74.8 °F 47.5 °F 29.92 in WNW 2.0 mph 7.0 mph 38 % 0.00 in
19:51 74.7 °F 48.0 °F 29.92 in NNW 2.0 mph 7.0 mph 39 % 0.00 in
19:56 74.1 °F 47.7 °F 29.93 in North 2.0 mph 7.0 mph 39 % 0.00 in
20:01 73.8 °F 48.0 °F 29.93 in NW 1.0 mph 5.0 mph 40 % 0.00 in
20:06 73.6 °F 47.8 °F 29.93 in Calm   4.0 mph 40 % 0.00 in
20:11 73.2 °F 48.0 °F 29.94 in NNW 1.0 mph 4.0 mph 41 % 0.00 in
20:16 72.9 °F 47.8 °F 29.94 in Calm   4.0 mph 41 % 0.00 in
20:21 72.5 °F 47.5 °F 29.94 in NNW 1.0 mph 3.0 mph 41 % 0.00 in
20:26 72.1 °F 47.8 °F 29.94 in Calm   1.0 mph 42 % 0.00 in
20:31 71.6 °F 47.8 °F 29.94 in Calm   1.0 mph 43 % 0.00 in
20:36 71.2 °F 47.7 °F 29.94 in Calm   1.0 mph 43 % 0.00 in
20:41 70.7 °F 47.7 °F 29.94 in Calm   1.0 mph 44 % 0.00 in
20:46 70.2 °F 47.8 °F 29.94 in Calm   1.0 mph 45 % 0.00 in
20:51 69.6 °F 48.6 °F 29.94 in Calm   1.0 mph 47 % 0.00 in
20:56 69.4 °F 48.4 °F 29.94 in Calm   1.0 mph 47 % 0.00 in
21:01 69.1 °F 48.6 °F 29.95 in Calm   1.0 mph 48 % 0.00 in
21:06 68.5 °F 48.6 °F 29.95 in Calm   1.0 mph 49 % 0.00 in
21:12 68.4 °F 48.9 °F 29.95 in Calm     50 % 0.00 in
21:17 68.4 °F 49.5 °F 29.96 in Calm   1.0 mph 51 % 0.00 in
21:22 68.2 °F 49.3 °F 29.96 in Calm   1.0 mph 51 % 0.00 in
21:27 67.6 °F 49.5 °F 29.96 in Calm   1.0 mph 52 % 0.00 in
21:32 67.3 °F 49.6 °F 29.96 in Calm   1.0 mph 53 % 0.00 in
21:37 66.7 °F 49.6 °F 29.96 in Calm     54 % 0.00 in
21:42 66.6 °F 50.4 °F 29.96 in Calm     56 % 0.00 in
21:47 66.4 °F 49.6 °F 29.96 in Calm     55 % 0.00 in
21:52 65.8 °F 49.6 °F 29.96 in Calm     56 % 0.00 in
21:57 64.9 °F 49.3 °F 29.96 in Calm     57 % 0.00 in
22:02 64.6 °F 49.5 °F 29.96 in Calm     58 % 0.00 in
22:07 63.9 °F 49.3 °F 29.96 in Calm     59 % 0.00 in
22:12 63.3 °F 49.6 °F 29.96 in Calm     61 % 0.00 in
22:17 63.3 °F 50.5 °F 29.97 in Calm     63 % 0.00 in
22:22 63.7 °F 51.3 °F 29.97 in Calm     64 % 0.00 in
22:27 63.5 °F 50.7 °F 29.97 in Calm     63 % 0.00 in
22:32 63.1 °F 50.7 °F 29.97 in Calm     64 % 0.00 in
22:37 62.8 °F 50.9 °F 29.97 in Calm     65 % 0.00 in
22:42 62.6 °F 51.1 °F 29.97 in Calm     66 % 0.00 in
22:47 62.4 °F 50.9 °F 29.97 in Calm     66 % 0.00 in
22:52 62.4 °F 50.9 °F 29.97 in Calm     66 % 0.00 in
22:57 62.2 °F 51.1 °F 29.96 in Calm     67 % 0.00 in
23:02 62.1 °F 50.9 °F 29.96 in Calm     67 % 0.00 in
23:07 61.9 °F 51.3 °F 29.97 in Calm     68 % 0.00 in
23:12 61.5 °F 50.9 °F 29.97 in Calm     68 % 0.00 in
23:17 61.3 °F 51.1 °F 29.97 in Calm     69 % 0.00 in
23:22 61.2 °F 50.5 °F 29.97 in Calm     68 % 0.00 in
23:27 60.6 °F 50.0 °F 29.97 in Calm     68 % 0.00 in
23:32 60.1 °F 49.5 °F 29.97 in Calm     68 % 0.00 in
23:37 59.7 °F 50.0 °F 29.97 in Calm     70 % 0.00 in
23:42 59.4 °F 49.6 °F 29.97 in Calm     70 % 0.00 in
23:47 59.0 °F 49.6 °F 29.97 in Calm     71 % 0.00 in
23:52 58.8 °F 50.2 °F 29.97 in Calm     73 % 0.00 in
23:57 58.6 °F 50.0 °F 29.97 in Calm     73 % 0.00 in
Spring, Texas: Villages of Bridgestone
Compliments of Weather Underground - 2.75 mb

Script developed by  Jim McMurry - jmcmurry@mwt.net Adapted for the template by  Wim van der Kuil - Leuven-Template.eu

You find our weather info also at:

UK Metoffice

WeatherCloud

Weather Underground

Mid-South Weather Network

AWEKAS

Citizen Weather Observer Program (CWOP)

HAMweather, WeatherForYou, PWS Weather

Equipment we use:

Weather-station
Davis Vantage Vue

Weather-program
Meteohub

Weather-server
Debian 7.9 x86 (Guest)

Provider
DreamHost

Davis Vantage Vue

Meteohub

Debian 7.9 x86 (Guest)

DreamHost